CSS (MENGTIAN)

Last updated on Sun Jun 21 2026 00:02:11 GMT+0000 (Coordinated Universal Time)

1 54216U 22143A 26171.43213816 .00020661 00000+0 24268-3 0 9994 2 54216 41.4693 302.2526 0007384 105.8714 254.2939 15.60937952294359
UTC large
Height (km)
Speed (km/s)
/
Latitude / Longitude
Inclination (degrees)
Orbital Period (minutes)
Azimuth
Elevation
Range (km)
Doppler Factor

Next 0 passes for location: London (51.5072 / 0.1276)

No passes found over London.
CSS (MENGTIAN)